User: anonymous   Login
Location: Unspecified
(0.0000°N, 0.0000°E)
Time: 01:28:46
(UTC+00:00)
Language:

OSNSAT - Orbit

View from above orbital plane
View from above orbital plane
View from above satellite
View from above satellite

Ground track
Ground track

The orbit data is extracted from the following two-line orbital elements,

1 41939U 98067KZ  17266.37376927  .00059353  00000-0  45752-3 0  9993
2 41939  51.6354 254.0642 0002849 327.8690  32.2134 15.71377500 38319
Epoch (UTC): 23 September 2017 08:58:13
Eccentricity: 0.0002849
inclination: 51.6354°
perigee height: 353 km
apogee height: 357 km
right ascension of ascending node: 254.0642°
argument of perigee: 327.8690°
revolutions per day: 15.71377500
mean anomaly at epoch: 32.2134°
orbit number at epoch: 3831

The dashed part of the orbit path shows where the satellite is in the earth's shadow,  

DLR